Americus, GA

12:32 AM EDT on September 21, 2017 (GMT -0400)
Souther

Weather History for KACJ - November, 2012

Change the Weather History Date:

Sunday, November 18, 2012

  Actual Average (KABY) Record (KABY)
Temperature  
Mean Temperature 52 °F -  
Max Temperature 68 °F 67 °F 85 °F (1958)
Min Temperature 37 °F 45 °F 24 °F (1970)
Degree Days  
Heating Degree Days 12    
Growing Degree Days 2 (Base 50)    
Moisture  
Dew Point 44 °F    
Average Humidity 77    
Maximum Humidity 93    
Minimum Humidity 20    
Precipitation  
Precipitation 0.00 in - - ()
Sea Level Pressure  
Sea Level Pressure 30.31 in    
Wind  
Wind Speed 6 mph ()    
Max Wind Speed 15 mph    
Max Gust Speed 20 mph    
Visibility 10.0 miles    
Events      
Averages and records for this station are not official NWS values.
T = Trace of Precipitation, MM = Missing Value Source: Averaged Metar Reports

Daily Weather History Graph

Daily Weather History Graph

Search for Another Location

Airport or City:

Trip Planner

Search our weather history database for the weather conditions in past years. The results will help you decide how hot, cold, wet, or windy it might be!

Date:

Astronomy

Nov. 18, 2012 Rise Set
Actual Time 7:08 AM EST 5:35 PM EST
Civil Twilight 6:42 AM EST 6:01 PM EST
Nautical Twilight 6:12 AM EST 6:30 PM EST
Astronomical Twilight 5:43 AM EST 7:00 PM EST
Moon 11:38 AM EST (11/18) 10:48 PM EST (11/18)
Length of Visible Light 11h 18m
Length of Day
10h 26m
Waxing Crescent, 30% of the Moon is Illuminated
Nov 18
Waxing Crescent
Nov 20
First Quarter
Nov 28
Full
Dec 6
Last Quarter
Dec 13
New

Hourly Weather History & Observations

Time (EST) Temp. Windchill Dew Point Humidity Pressure Visibility Wind Dir Wind Speed Gust Speed Precip Events Conditions
12:15 AM 42.8 °F 40.1 °F - N/A% 30.34 in 10.0 mi NE 4.6 mph - N/A   Clear
12:35 AM 41.0 °F 37.1 °F - N/A% 30.34 in 10.0 mi NE 5.8 mph - N/A   Clear
12:55 AM 41.0 °F 37.1 °F - N/A% 30.33 in 10.0 mi NE 5.8 mph - N/A   Clear
1:15 AM 41.0 °F 38.0 °F - N/A% 30.33 in 10.0 mi NE 4.6 mph - N/A   Clear
1:35 AM 39.2 °F 34.2 °F - N/A% 30.33 in 10.0 mi NE 6.9 mph - N/A   Mostly Cloudy
1:55 AM 39.2 °F 34.2 °F - N/A% 30.33 in 10.0 mi NE 6.9 mph - N/A   Scattered Clouds
2:15 AM 41.0 °F 36.4 °F - N/A% 30.32 in 10.0 mi NE 6.9 mph - N/A   Scattered Clouds
2:55 AM 41.0 °F 37.1 °F - N/A% 30.33 in 10.0 mi NE 5.8 mph - N/A   Clear
3:15 AM 39.2 °F 35.9 °F - N/A% 30.33 in 10.0 mi NE 4.6 mph - N/A   Clear
3:35 AM 39.2 °F 37.0 °F - N/A% 30.33 in 10.0 mi NNE 3.5 mph - N/A   Clear
3:55 AM 37.4 °F 32.1 °F - N/A% 30.33 in 10.0 mi NNE 6.9 mph - N/A   Clear
4:15 AM 39.2 °F 33.6 °F - N/A% 30.32 in 10.0 mi NNE 8.1 mph - N/A   Clear
4:35 AM 41.0 °F 37.1 °F - N/A% 30.32 in 10.0 mi NNE 5.8 mph - N/A   Clear
4:55 AM 39.2 °F 35.0 °F - N/A% 30.33 in 10.0 mi NE 5.8 mph - N/A   Clear
5:15 AM 37.4 °F 32.8 °F - N/A% 30.33 in 10.0 mi NNE 5.8 mph - N/A   Clear
5:35 AM 37.4 °F 32.8 °F - N/A% 30.33 in 10.0 mi NNE 5.8 mph - N/A   Clear
5:55 AM 37.4 °F 32.1 °F - N/A% 30.33 in 10.0 mi NNE 6.9 mph - N/A   Clear
6:15 AM 37.4 °F 32.1 °F - N/A% 30.34 in 10.0 mi NE 6.9 mph - N/A   Clear
6:35 AM 39.2 °F 34.2 °F - N/A% 30.34 in 10.0 mi NE 6.9 mph - N/A   Clear
6:55 AM 37.4 °F 32.8 °F - N/A% 30.35 in 10.0 mi NE 5.8 mph - N/A   Clear
7:15 AM 37.4 °F 31.4 °F - N/A% 30.36 in 10.0 mi NE 8.1 mph - N/A   Clear
7:35 AM 39.2 °F 34.2 °F - N/A% 30.36 in 10.0 mi NE 6.9 mph - N/A   Clear
7:55 AM 41.0 °F 36.4 °F - N/A% 30.36 in 10.0 mi NNE 6.9 mph - N/A   Clear
8:15 AM 44.6 °F 40.2 °F - N/A% 30.36 in 10.0 mi NE 8.1 mph - N/A   Clear
8:35 AM 44.6 °F 39.2 °F - N/A% 30.36 in 10.0 mi NE 10.4 mph - N/A   Clear
8:55 AM 48.2 °F - - N/A% 30.36 in 10.0 mi NE 9.2 mph - N/A   Clear
9:15 AM 50.0 °F - - N/A% 30.36 in 10.0 mi NE 13.8 mph - N/A   Clear
9:35 AM 51.8 °F - - N/A% 30.35 in 10.0 mi ENE 15.0 mph 19.6 mph N/A   Clear
9:55 AM 53.6 °F - - N/A% 30.35 in 10.0 mi NNE 11.5 mph 17.3 mph N/A   Clear
10:15 AM 53.6 °F - - N/A% 30.35 in 10.0 mi NE 9.2 mph - N/A   Clear
10:35 AM 55.4 °F - - N/A% 30.35 in 10.0 mi NE 10.4 mph - N/A   Clear
10:55 AM 57.2 °F - - N/A% 30.34 in 10.0 mi ENE 10.4 mph - N/A   Clear
11:15 AM 59.0 °F - - N/A% 30.34 in 10.0 mi NE 8.1 mph - N/A   Clear
11:35 AM 60.8 °F - - N/A% 30.33 in 10.0 mi NE 5.8 mph - N/A   Clear
11:55 AM 60.8 °F - - N/A% 30.32 in 10.0 mi NNE 3.5 mph - N/A   Clear
12:15 PM 62.6 °F - - N/A% 30.31 in 10.0 mi East 6.9 mph - N/A   Clear
12:35 PM 62.6 °F - - N/A% 30.30 in 10.0 mi NE 6.9 mph - N/A   Clear
12:55 PM 64.4 °F - - N/A% 30.29 in 10.0 mi NNE 9.2 mph - N/A   Clear
1:15 PM 64.4 °F - - N/A% 30.28 in 10.0 mi ENE 6.9 mph - N/A   Clear
1:35 PM 64.4 °F - - N/A% 30.28 in 10.0 mi NE 6.9 mph - N/A   Clear
1:55 PM 66.2 °F - - N/A% 30.27 in 10.0 mi NE 8.1 mph - N/A   Clear
2:15 PM 66.2 °F - - N/A% 30.26 in 10.0 mi NE 9.2 mph - N/A   Clear
2:35 PM 68.0 °F - - N/A% 30.27 in 10.0 mi NNE 5.8 mph - N/A   Clear
2:55 PM 68.0 °F - - N/A% 30.26 in 10.0 mi East 6.9 mph - N/A   Clear
3:15 PM 68.0 °F - - N/A% 30.26 in 10.0 mi NE 5.8 mph - N/A   Clear
3:35 PM 68.0 °F - - N/A% 30.26 in 10.0 mi ENE 8.1 mph - N/A   Clear
3:55 PM 68.0 °F - - N/A% 30.26 in 10.0 mi ENE 8.1 mph - N/A   Clear
4:15 PM 68.0 °F - - N/A% 30.26 in 10.0 mi NE 9.2 mph - N/A   Clear
4:35 PM 66.2 °F - - N/A% 30.27 in 10.0 mi ENE 6.9 mph - N/A   Clear
4:55 PM 64.4 °F - - N/A% 30.27 in 10.0 mi ENE 5.8 mph - N/A   Clear
5:15 PM 62.6 °F - - N/A% 30.27 in 10.0 mi NE 6.9 mph - N/A   Clear
5:35 PM 60.8 °F - - N/A% 30.28 in 10.0 mi NE 5.8 mph - N/A   Clear
5:55 PM 57.2 °F - 15.8 °F 20% 30.28 in 10.0 mi ENE 5.8 mph - N/A   Clear
6:15 PM 55.4 °F - 44.6 °F 67% 30.28 in 10.0 mi ENE 6.9 mph - N/A   Clear
6:35 PM 53.6 °F - 44.6 °F 72% 30.28 in 10.0 mi NE 6.9 mph - N/A   Clear
6:55 PM 53.6 °F - 44.6 °F 72% 30.28 in 10.0 mi NE 5.8 mph - N/A   Clear
7:15 PM 55.4 °F - 44.6 °F 67% 30.29 in 10.0 mi NNE 4.6 mph - N/A   Clear
7:35 PM 53.6 °F - 44.6 °F 72% 30.29 in 10.0 mi NNE 4.6 mph - N/A   Clear
7:55 PM 53.6 °F - 44.6 °F 72% 30.30 in 10.0 mi NE 8.1 mph - N/A   Clear
8:15 PM 51.8 °F - 46.4 °F 82% 30.31 in 10.0 mi NE 6.9 mph - N/A   Clear
8:35 PM 51.8 °F - 46.4 °F 82% 30.31 in 10.0 mi NE 6.9 mph - N/A   Clear
8:55 PM 51.8 °F - 46.4 °F 82% 30.31 in 10.0 mi NE 5.8 mph - N/A   Clear
9:15 PM 51.8 °F - 46.4 °F 82% 30.31 in 10.0 mi NE 6.9 mph - N/A   Clear
9:35 PM 50.0 °F - 46.4 °F 87% 30.31 in 10.0 mi NNE 5.8 mph - N/A   Clear
9:55 PM 50.0 °F - 46.4 °F 87% 30.31 in 10.0 mi NNE 4.6 mph - N/A   Clear
10:15 PM 50.0 °F - 46.4 °F 87% 30.31 in 10.0 mi NE 3.5 mph - N/A   Clear
10:35 PM 50.0 °F - 44.6 °F 82% 30.31 in 10.0 mi NNE 3.5 mph - N/A   Clear
10:55 PM 46.4 °F 44.3 °F 44.6 °F 93% 30.30 in 10.0 mi NNE 4.6 mph - N/A   Clear
11:35 PM 46.4 °F 43.5 °F 44.6 °F 93% 30.30 in 10.0 mi NNE 5.8 mph - N/A   Clear
11:55 PM 46.4 °F 43.5 °F 44.6 °F 93% 30.30 in 10.0 mi NNE 5.8 mph - N/A   Clear